Location: Newark
(55.7083°N, 13.1992°E)
Time: 18:49:14
(UTC+00:00)

deb Explorer IX - All Passes

Search period start: 25 February 2020 00:00
Search period end: 06 March 2020 00:00
Orbit: 549 x 1099 km, 38.8° (Epoch: 25 February)

Date Brightness Start Highest point End Pass type
(mag) Time Alt. Az. Time Alt. Az. Time Alt. Az.
02 Mar - 07:31:48 10° S 07:32:37 10° S 07:33:25 10° SSE daylight
03 Mar - 07:08:50 10° SSW 07:10:16 11° S 07:11:39 10° SSE daylight
04 Mar - 06:46:01 10° SSW 06:47:54 12° S 06:49:42 10° SSE daylight
05 Mar - 06:23:15 10° SSW 06:25:32 12° S 06:27:41 10° SSE daylight
